EW1744 Weather Reports


Display with metric or nautical units.
time (UTC)temp
F
wind
direction
speed
MPH
gust
MPH
rain 1hr
in
rain 24hr
in
rain mn
in
humidity
%
barometer
mb
20190221184733 40 266 2.0 7.0 0.02 0.02 0.02 80 1009.5
20190221184230 40 269 2.0 5.0 0.01 0.01 0.01 80 1009.6
20190221183732 40 273 2.0 6.0 0.00 0.00 0.00 81 1009.6
20190221183230 39 207 2.0 6.0 0.00 0.00 0.00 82 1009.5
20190221182730 39 222 3.0 6.0 0.00 0.00 0.00 83 1009.7
20190221182231 38 245 3.0 6.0 0.00 0.00 0.00 83 1009.7
20190221181730 38 250 2.0 6.0 0.00 0.00 0.00 83 1009.7
20190221181231 38 297 2.0 7.0 0.00 0.00 0.00 85 1009.8
20190221180730 37 284 2.0 7.0 0.00 0.00 0.00 84 1009.8
20190221180229 37 259 2.0 7.0 0.00 0.00 0.00 84 1009.8
20190221175728 37 329 2.0 6.0 0.00 0.00 0.00 85 1009.8
20190221175229 36 266 2.0 6.0 0.00 0.00 0.00 85 1009.8
20190221174728 36 249 2.0 5.0 0.00 0.00 0.00 86 1009.9
20190221174230 36 285 2.0 4.0 0.00 0.00 0.00 85 1009.9
20190221173734 36 297 1.0 4.0 0.00 0.00 0.00 86 1009.9
20190221173229 35 236 0.0 3.0 0.00 0.00 0.00 86 1009.9
20190221172729 35 276 1.0 4.0 0.00 0.00 0.00 86 1009.8
20190221172228 35 258 1.0 4.0 0.00 0.00 0.00 86 1009.8
20190221171728 35 277 1.0 6.0 0.00 0.00 0.00 86 1009.9
20190221171228 34 266 1.0 6.0 0.00 0.00 0.00 86 1010.1
20190221170727 34 289 2.0 5.0 0.00 0.00 0.00 87 1010.2
20190221170228 33 347 2.0 5.0 0.00 0.00 0.00 86 1010.2
20190221165726 33 269 2.0 5.0 0.00 0.00 0.00 86 1010.3
20190221165226 33 347 1.0 3.0 0.00 0.00 0.00 86 1010.2
20190221164727 33 269 1.0 4.0 0.00 0.00 0.00 87 1010.1
20190221164227 33 236 1.0 4.0 0.00 0.00 0.00 87 1010.2
20190221163726 33 312 1.0 4.0 0.00 0.00 0.00 87 1010.3
20190221163226 32 243 1.0 4.0 0.00 0.00 0.00 87 1010.5
20190221162726 32 300 1.0 3.0 0.00 0.00 0.00 87 1010.5
20190221162227 32 249 1.0 3.0 0.00 0.00 0.00 87 1010.5
20190221161724 32 263 1.0 4.0 0.00 0.00 0.00 87 1010.3
20190221161226 31 283 2.0 4.0 0.00 0.00 0.00 87 1010.1
20190221160724 31 253 1.0 4.0 0.00 0.00 0.00 87 1010.2
20190221160225 31 351 2.0 4.0 0.00 0.00 0.00 87 1010.4
20190221155725 31 262 2.0 6.0 0.00 0.00 0.00 87 1010.5
20190221155224 31 303 1.0 6.0 0.00 0.00 0.00 87 1010.5
20190221154724 31 273 1.0 2.0 0.00 0.00 0.00 87 1010.2
20190221154225 30 262 1.0 3.0 0.00 0.00 0.00 87 1010.3
20190221153727 30 327 1.0 3.0 0.00 0.00 0.00 87 1010.4
20190221153228 29 267 1.0 3.0 0.00 0.00 0.00 87 1010.7
20190221152724 29 271 1.0 4.0 0.00 0.00 0.00 87 1010.7
20190221152223 29 26 1.0 4.0 0.00 0.00 0.00 87 1010.7
20190221151724 29 286 1.0 5.0 0.00 0.00 0.00 87 1010.8
20190221151222 29 329 2.0 5.0 0.00 0.00 0.00 87 1010.8
20190221150723 28 262 1.0 4.0 0.00 0.00 0.00 87 1011.0
20190221150222 28 294 1.0 4.0 0.00 0.00 0.00 87 1010.9
20190221145724 29 340 1.0 3.0 0.00 0.00 0.00 87 1010.8
20190221145222 28 274 1.0 3.0 0.00 0.00 0.00 87 1010.8
20190221144722 29 252 0.0 2.0 0.00 0.00 0.00 87 1010.8
20190221144221 28 243 1.0 3.0 0.00 0.00 0.00 87 1010.8
20190221143720 28 23 1.0 3.0 0.00 0.00 0.00 87 1010.9
20190221143221 28 290 0.0 4.0 0.00 0.00 0.00 87 1011.0
20190221142720 28 274 1.0 4.0 0.00 0.00 0.00 87 1011.1
20190221142221 27 19 1.0 4.0 0.00 0.00 0.00 87 1011.3
20190221141720 27 332 1.0 4.0 0.00 0.00 0.00 87 1011.4
20190221141221 28 272 1.0 2.0 0.00 0.00 0.00 87 1011.5
20190221140720 28 324 1.0 3.0 0.00 0.00 0.00 87 1011.6
20190221140220 27 330 1.0 3.0 0.00 0.00 0.00 87 1011.5
20190221135721 27 302 0.0 2.0 0.00 0.00 0.00 87 1011.6
20190221135220 27 336 1.0 4.0 0.00 0.00 0.00 87 1011.6
20190221134718 27 49 1.0 4.0 0.00 0.00 0.00 87 1011.6
20190221134220 27 344 0.0 2.0 0.00 0.00 0.00 87 1011.6
20190221133720 27 276 1.0 3.0 0.00 0.00 0.00 87 1011.6
20190221133222 27 18 1.0 4.0 0.00 0.00 0.00 87 1011.6
20190221132719 27 338 0.0 4.0 0.00 0.00 0.00 87 1011.5
20190221132220 27 344 0.0 4.0 0.00 0.00 0.00 87 1011.7
20190221131719 26 300 1.0 4.0 0.00 0.00 0.00 87 1011.5
20190221131219 26 281 0.0 2.0 0.00 0.00 0.00 87 1011.6
20190221130719 26 325 0.0 2.0 0.00 0.00 0.00 87 1011.8
20190221130217 26 8 1.0 2.0 0.00 0.00 0.00 87 1012.0
20190221125716 26 95 1.0 2.0 0.00 0.00 0.00 87 1012.0
20190221125217 26 336 1.0 3.0 0.00 0.00 0.00 87 1012.1
20190221124718 26 358 1.0 3.0 0.00 0.00 0.00 87 1012.2
20190221124218 26 332 1.0 4.0 0.00 0.00 0.00 87 1012.4
20190221123718 26 27 2.0 4.0 0.00 0.00 0.00 87 1012.5
20190221123216 25 61 2.0 4.0 0.00 0.00 0.00 87 1012.3
20190221122718 25 13 1.0 4.0 0.00 0.00 0.00 87 1012.4
20190221122218 25 44 1.0 4.0 0.00 0.00 0.00 87 1012.5
20190221121717 25 354 1.0 3.0 0.00 0.00 0.00 87 1012.7
20190221121215 25 54 1.0 3.0 0.00 0.00 0.00 87 1012.9
20190221120715 25 341 1.0 3.0 0.00 0.00 0.00 87 1012.9
20190221120214 25 18 2.0 3.0 0.00 0.00 0.00 87 1013.0
20190221115714 25 19 2.0 3.0 0.00 0.00 0.00 87 1013.2
20190221115214 25 40 2.0 5.0 0.00 0.00 0.00 87 1013.5
20190221114715 24 20 2.0 5.0 0.00 0.00 0.00 87 1013.4
20190221114216 24 46 2.0 4.0 0.00 0.00 0.00 87 1013.7
20190221113714 24 35 2.0 5.0 0.00 0.00 0.00 87 1013.6
20190221113214 24 40 2.0 5.0 0.00 0.00 0.00 87 1013.6
20190221112714 24 26 2.0 5.0 0.00 0.00 0.00 87 1013.9
20190221112215 24 26 3.0 5.0 0.00 0.00 0.00 87 1014.2
20190221111712 24 101 2.0 5.0 0.00 0.00 0.00 87 1014.1
20190221111213 24 13 2.0 4.0 0.00 0.00 0.00 87 1014.2
20190221110712 24 11 2.0 4.0 0.00 0.00 0.00 87 1014.3
20190221110212 24 40 2.0 4.0 0.00 0.00 0.00 87 1014.2
20190221105714 24 55 2.0 4.0 0.00 0.00 0.00 87 1014.2
20190221105216 24 20 2.0 4.0 0.00 0.00 0.00 87 1014.5
20190221104715 24 337 2.0 4.0 0.00 0.00 0.00 87 1014.7
20190221104212 24 41 2.0 4.0 0.00 0.00 0.00 87 1014.9
20190221103712 24 32 2.0 4.0 0.00 0.00 0.00 87 1014.9
20190221103212 24 58 2.0 4.0 0.00 0.00 0.00 87 1014.9
20190221102710 24 47 2.0 4.0 0.00 0.00 0.00 87 1015.3
20190221102213 24 23 2.0 4.0 0.00 0.00 0.00 87 1015.4
20190221101710 24 71 2.0 4.0 0.00 0.00 0.00 87 1015.7
20190221101212 24 44 2.0 4.0 0.00 0.00 0.00 87 1015.7
20190221100712 24 35 2.0 4.0 0.00 0.00 0.00 87 1015.8
20190221100211 24 35 2.0 3.0 0.00 0.00 0.00 87 1015.8
20190221095711 24 6 2.0 4.0 0.00 0.00 0.00 87 1016.0
20190221095213 24 39 2.0 4.0 0.00 0.00 0.00 87 1015.9
20190221094710 24 47 1.0 3.0 0.00 0.00 0.00 87 1015.8
20190221094210 24 42 2.0 4.0 0.00 0.00 0.00 87 1015.8
20190221093708 24 25 2.0 4.0 0.00 0.00 0.00 87 1015.8
20190221093210 24 36 2.0 3.0 0.00 0.00 0.00 87 1015.8
20190221092708 24 35 2.0 4.0 0.00 0.00 0.00 87 1016.0
20190221092210 24 49 2.0 4.0 0.00 0.00 0.00 87 1016.2
20190221091709 24 36 2.0 4.0 0.00 0.00 0.00 87 1016.4
20190221091208 24 35 2.0 4.0 0.00 0.00 0.00 87 1016.1
20190221090709 24 29 2.0 4.0 0.00 0.00 0.00 87 1016.1
20190221090209 24 53 2.0 4.0 0.00 0.00 0.00 87 1016.3
20190221085709 24 47 2.0 4.0 0.00 0.00 0.00 87 1016.6
20190221085210 25 19 2.0 4.0 0.00 0.00 0.00 87 1016.6
20190221084710 25 41 2.0 3.0 0.00 0.00 0.00 87 1016.7
20190221084208 25 29 2.0 3.0 0.00 0.00 0.00 87 1016.6
20190221083709 25 9 1.0 2.0 0.00 0.00 0.00 87 1016.6
20190221083211 25 25 0.0 2.0 0.00 0.00 0.00 87 1016.6
20190221082707 25 1 0.0 0.0 0.00 0.00 0.00 87 1016.6
20190221082206 25 348 0.0 0.0 0.00 0.00 0.00 87 1016.6
20190221081707 25 348 0.0 0.0 0.00 0.00 0.00 87 1017.0
20190221081207 25 340 0.0 0.0 0.00 0.00 0.00 87 1017.0
20190221080705 25 340 0.0 0.0 0.00 0.00 0.00 87 1017.1
20190221080204 25 316 0.0 0.0 0.00 0.00 0.00 87 1017.2
20190221075706 25 322 0.0 0.0 0.00 0.00 0.00 87 1017.4
20190221075202 25 320 0.0 0.0 0.00 0.00 0.00 87 1017.7
20190221074703 25 311 0.0 0.0 0.00 0.00 0.00 87 1017.7
20190221074203 24 350 0.0 0.0 0.00 0.00 0.00 87 1017.8
20190221073702 24 0 0.0 0.0 0.00 0.00 0.00 87 1017.9
20190221073203 24 231 0.0 0.0 0.00 0.00 0.00 87 1018.2
20190221072702 24 231 0.0 0.0 0.00 0.00 0.00 87 1018.6
20190221072203 24 231 0.0 0.0 0.00 0.00 0.00 87 1018.7
20190221071703 24 221 0.0 0.0 0.00 0.00 0.00 87 1019.0
20190221071200 24 221 0.0 1.0 0.00 0.00 0.00 87 1019.1
20190221070700 24 221 0.0 1.0 0.00 0.00 0.00 87 1019.0
20190221070200 24 221 0.0 1.0 0.00 0.00 0.00 87 1019.2
20190221065659 24 204 0.0 0.0 0.00 0.00 0.00 87 1019.4
20190221065201 24 174 0.0 0.0 0.00 0.00 0.00 87 1019.6
20190221064700 24 173 0.0 0.0 0.00 0.00 0.00 87 1019.8
20190221064200 24 173 0.0 0.0 0.00 0.00 0.00 87 1020.0
20190221063700 24 173 0.0 0.0 0.00 0.00 0.00 87 1020.1
20190221063201 24 173 0.0 0.0 0.00 0.00 0.00 87 1020.0
20190221062701 24 173 0.0 0.0 0.00 0.00 0.00 87 1020.3
20190221062200 24 173 0.0 0.0 0.00 0.00 0.00 87 1020.6
20190221061702 24 173 0.0 0.0 0.00 0.00 0.00 87 1020.8
20190221061200 24 173 0.0 0.0 0.00 0.00 0.00 87 1021.0
20190221060659 24 173 0.0 0.0 0.00 0.00 0.00 87 1021.3
20190221060159 24 173 0.0 0.0 0.00 0.00 0.00 87 1021.9
20190221055701 24 173 0.0 0.0 0.00 0.00 0.00 87 1022.2
20190221055200 24 173 0.0 0.0 0.00 0.00 0.00 87 1022.3
20190221054658 24 173 0.0 0.0 0.00 0.00 0.00 87 1022.4
20190221054159 24 173 0.0 0.0 0.00 0.00 0.00 87 1022.7
20190221053659 24 173 0.0 0.0 0.00 0.00 0.00 86 1022.5
20190221053157 24 173 0.0 0.0 0.00 0.00 0.00 86 1022.7
20190221052657 24 173 0.0 0.0 0.00 0.00 0.00 86 1022.6
20190221052155 24 174 0.0 0.0 0.00 0.00 0.00 86 1022.8
20190221051655 24 145 0.0 0.0 0.00 0.00 0.00 86 1023.0
20190221051154 24 145 0.0 1.0 0.00 0.00 0.00 86 1023.3
20190221050653 24 145 0.0 2.0 0.00 0.00 0.00 86 1023.4
20190221050154 24 145 0.0 2.0 0.00 0.00 0.00 86 1023.5
20190221045655 24 243 0.0 0.0 0.00 0.00 0.00 86 1023.6
20190221045154 24 243 0.0 0.0 0.00 0.00 0.00 86 1023.7
20190221044654 24 243 0.0 0.0 0.00 0.00 0.00 86 1023.9
20190221044152 24 243 0.0 0.0 0.00 0.00 0.00 86 1024.2
20190221043651 24 243 0.0 0.0 0.00 0.00 0.00 86 1024.7
20190221043152 24 243 0.0 1.0 0.00 0.00 0.00 86 1024.6
20190221042652 24 244 0.0 1.0 0.00 0.00 0.00 86 1024.9
20190221042152 24 243 0.0 1.0 0.00 0.00 0.00 86 1025.2
20190221041649 24 243 0.0 2.0 0.00 0.00 0.00 86 1025.4
20190221041148 24 267 0.0 2.0 0.00 0.00 0.00 86 1025.4
20190221040649 24 152 0.0 1.0 0.00 0.00 0.00 86 1025.5
20190221040151 24 259 0.0 1.0 0.00 0.00 0.00 85 1025.7
20190221035649 24 258 1.0 2.0 0.00 0.00 0.00 85 1025.9
20190221035147 24 245 1.0 2.0 0.00 0.00 0.00 85 1026.0
20190221034649 25 227 1.0 2.0 0.00 0.00 0.00 85 1026.3
20190221034150 25 238 0.0 2.0 0.00 0.00 0.00 84 1026.4
20190221033649 25 271 1.0 3.0 0.00 0.00 0.00 84 1026.4
20190221033149 25 250 1.0 3.0 0.00 0.00 0.00 83 1026.4
20190221032645 25 242 0.0 2.0 0.00 0.00 0.00 83 1026.3
20190221032144 25 245 0.0 2.0 0.00 0.00 0.00 82 1026.3
20190221031643 25 255 1.0 3.0 0.00 0.00 0.00 81 1026.6
20190221031142 25 191 1.0 3.0 0.00 0.00 0.00 79 1026.6
20190221030644 26 250 0.0 3.0 0.00 0.00 0.00 78 1026.8
20190221030143 26 251 1.0 4.0 0.00 0.00 0.00 76 1027.0
20190221025643 26 257 2.0 5.0 0.00 0.00 0.00 74 1027.1
20190221025143 26 271 2.0 5.0 0.00 0.00 0.00 72 1027.2
20190221024644 27 248 2.0 7.0 0.00 0.00 0.00 70 1027.2
20190221024143 27 229 3.0 7.0 0.00 0.00 0.00 67 1027.2
20190221023645 28 264 2.0 7.0 0.00 0.00 0.00 62 1027.3
20190221023141 28 262 2.0 7.0 0.00 0.00 0.00 56 1027.4
20190221022642 28 250 1.0 5.0 0.00 0.00 0.00 55 1027.7
20190221022141 28 235 0.0 4.0 0.00 0.00 0.00 55 1027.9
20190221021641 28 210 0.0 2.0 0.00 0.00 0.00 56 1027.8
20190221021140 28 249 0.0 1.0 0.00 0.00 0.00 56 1027.8
20190221020641 28 248 0.0 1.0 0.00 0.00 0.00 55 1027.8
20190221020142 28 250 0.0 1.0 0.00 0.00 0.00 55 1028.0
20190221015642 28 183 0.0 1.0 0.00 0.00 0.00 54 1028.1
20190221015142 28 221 0.0 1.0 0.00 0.00 0.00 54 1028.3
20190221014645 28 174 0.0 2.0 0.00 0.00 0.00 54 1028.4
20190221014142 28 176 0.0 2.0 0.00 0.00 0.00 53 1028.3
20190221013642 28 238 0.0 1.0 0.00 0.00 0.00 53 1028.4
20190221013140 28 238 0.0 1.0 0.00 0.00 0.00 53 1028.3
20190221012639 28 238 0.0 1.0 0.00 0.00 0.00 52 1028.2
20190221012139 28 243 0.0 2.0 0.00 0.00 0.00 53 1028.2
20190221011639 28 200 1.0 3.0 0.00 0.00 0.00 52 1028.5
20190221011140 28 205 1.0 3.0 0.00 0.00 0.00 52 1028.3
20190221010638 28 238 1.0 3.0 0.00 0.00 0.00 51 1028.4
20190221010138 28 165 1.0 3.0 0.00 0.00 0.00 50 1028.5
20190221005638 28 109 1.0 3.0 0.00 0.00 0.00 50 1028.3
20190221005138 28 129 0.0 2.0 0.00 0.00 0.00 51 1028.6
20190221004637 28 165 0.0 2.0 0.00 0.00 0.00 52 1028.9
20190221004138 28 165 0.0 2.0 0.00 0.00 0.00 51 1029.1
20190221003638 28 145 0.0 2.0 0.00 0.00 0.00 50 1029.2
20190221003138 28 131 0.0 1.0 0.00 0.00 0.00 51 1029.5
20190221002637 28 160 0.0 1.0 0.00 0.00 0.00 49 1029.6
20190221002137 28 154 0.0 1.0 0.00 0.00 0.00 50 1029.8
20190221001637 28 155 0.0 1.0 0.00 0.00 0.00 51 1029.9
20190221001137 28 148 0.0 1.0 0.00 0.00 0.00 49 1029.8
20190221000636 28 207 0.0 1.0 0.00 0.00 0.00 51 1030.0
20190221000136 28 183 0.0 1.0 0.00 0.00 0.00 51 1029.9
20190220235636 28 169 0.0 2.0 0.00 0.00 0.00 50 1030.1
20190220235138 28 169 0.0 2.0 0.00 0.00 0.00 50 1030.1
20190220234635 28 173 0.0 2.0 0.00 0.00 0.00 51 1030.2
20190220234134 28 219 0.0 2.0 0.00 0.00 0.00 50 1030.3
20190220233633 28 221 0.0 2.0 0.00 0.00 0.00 49 1030.4
20190220233133 28 230 0.0 1.0 0.00 0.00 0.00 49 1030.5
20190220232631 28 229 1.0 2.0 0.00 0.00 0.00 48 1030.5
20190220232131 28 272 0.0 2.0 0.00 0.00 0.00 49 1030.7
20190220231633 28 245 0.0 2.0 0.00 0.00 0.00 49 1030.6
20190220231132 28 259 0.0 2.0 0.00 0.00 0.00 49 1030.8
20190220230629 28 258 1.0 3.0 0.00 0.00 0.00 49 1030.9
20190220230131 28 257 1.0 3.0 0.00 0.00 0.00 48 1030.6
20190220225629 28 212 0.0 2.0 0.00 0.00 0.00 48 1030.5
20190220225130 28 257 1.0 2.0 0.00 0.00 0.00 47 1030.6
20190220224628 28 245 0.0 2.0 0.00 0.00 0.00 47 1030.4
20190220224128 28 281 0.0 2.0 0.00 0.00 0.00 47 1030.5
20190220223627 28 174 0.0 2.0 0.00 0.00 0.00 46 1030.7
20190220223127 28 231 0.0 3.0 0.00 0.00 0.00 46 1030.8
20190220222628 28 262 1.0 3.0 0.00 0.00 0.00 44 1030.8
20190220222126 28 269 0.0 3.0 0.00 0.00 0.00 45 1031.1
20190220221628 28 265 1.0 3.0 0.00 0.00 0.00 45 1031.0
20190220221126 29 165 1.0 5.0 0.00 0.00 0.00 45 1031.2
20190220220628 29 257 0.0 5.0 0.00 0.00 0.00 45 1031.2
20190220220127 29 262 1.0 3.0 0.00 0.00 0.00 44 1031.4
20190220215628 29 251 1.0 5.0 0.00 0.00 0.00 43 1031.4
20190220215128 29 240 1.0 5.0 0.00 0.00 0.00 43 1031.5
20190220214628 29 276 1.0 4.0 0.00 0.00 0.00 43 1031.6
20190220214127 29 253 1.0 4.0 0.00 0.00 0.00 43 1031.5
20190220213627 29 270 1.0 3.0 0.00 0.00 0.00 42 1031.2
20190220213126 29 281 1.0 3.0 0.00 0.00 0.00 42 1031.3
20190220212628 29 278 1.0 3.0 0.00 0.00 0.00 41 1031.4
20190220212128 29 256 1.0 3.0 0.00 0.00 0.00 41 1031.5
20190220211628 29 288 0.0 3.0 0.00 0.00 0.00 40 1031.6
20190220211128 29 238 1.0 4.0 0.00 0.00 0.00 41 1031.5
20190220210627 29 238 1.0 4.0 0.00 0.00 0.00 40 1031.6
20190220210128 29 259 1.0 3.0 0.00 0.00 0.00 40 1031.5
20190220205627 29 256 1.0 3.0 0.00 0.00 0.00 41 1031.5
20190220205127 29 271 1.0 3.0 0.00 0.00 0.00 40 1031.4
20190220204628 29 262 2.0 3.0 0.00 0.00 0.00 39 1031.5
20190220204127 29 260 1.0 3.0 0.00 0.00 0.00 40 1031.5
20190220203628 29 271 1.0 4.0 0.00 0.00 0.00 40 1031.5
20190220203127 29 238 1.0 4.0 0.00 0.00 0.00 40 1031.7
20190220202627 29 245 2.0 5.0 0.00 0.00 0.00 42 1031.7
20190220202127 29 233 2.0 5.0 0.00 0.00 0.00 41 1031.7
20190220201628 29 271 1.0 4.0 0.00 0.00 0.00 42 1031.7
20190220201128 29 271 1.0 4.0 0.00 0.00 0.00 41 1031.5
20190220200628 29 212 1.0 4.0 0.00 0.00 0.00 41 1031.7
20190220200128 29 264 1.0 4.0 0.00 0.00 0.00 42 1031.8
20190220195627 29 145 1.0 3.0 0.00 0.00 0.00 43 1031.7
20190220195127 29 278 2.0 5.0 0.00 0.00 0.00 42 1031.9
20190220194627 29 212 2.0 5.0 0.00 0.00 0.00 41 1031.9
20190220194128 29 250 1.0 5.0 0.00 0.00 0.00 41 1032.1
20190220193626 29 152 1.0 4.0 0.00 0.00 0.00 45 1032.2
20190220193127 29 260 2.0 5.0 0.00 0.00 0.00 42 1032.3
20190220192627 29 215 2.0 5.0 0.00 0.00 0.00 42 1032.4
20190220192127 29 276 1.0 5.0 0.00 0.00 0.00 42 1032.8
20190220191627 29 309 1.0 3.0 0.00 0.00 0.00 44 1032.8
20190220191127 29 253 1.0 2.0 0.00 0.00 0.00 44 1033.1
20190220190627 29 285 1.0 2.0 0.00 0.00 0.00 45 1033.1
20190220190127 28 233 1.0 3.0 0.00 0.00 0.00 45 1033.1
20190220185627 28 272 1.0 4.0 0.00 0.00 0.00 44 1032.9
20190220185126 28 271 1.0 4.0 0.00 0.00 0.00 45 1032.9